This demonstration page uses our WeatherBlox Daily Observations layout. Learn more.

Left ArrowRight Arrow

41.12389, -100.76542

Hourly Observations for September 7, 2016

Temp ( °F °C ) Dew Point ( °F °C ) Humidity (%) Winds ( mph kmh ) Pressure ( in mb ) Visibility ( mi km ) Precip ( " mm )
12:26 am 00:26 Cloudy with Thunderstorms 63 17 61 16 94 94 VRB 3 6 29.88 1012 6 10 0.00 0.00
12:33 am 00:33 Cloudy with Strong Thunderstorms 62 16.7 60 15.6 93 93 E 6 9 29.91 1013 4 6 0.11 2.79
12:53 am 00:53 Cloudy with Thunderstorms 62 16.7 60 15.6 93 93 Calm 29.95 1014 6 10 0.17 4.32
12:59 am 00:59 Cloudy with Light Rain 63 17 61 16 94 94 E 5 7 29.91 1013 10 16 0.00 0.00
1:23 am 01:23 Cloudy 62 16.7 60 15.6 93 93 ENE 3 6 29.91 1013 10 16 0.00 0.03
1:53 am 01:53 Cloudy with Light Rain 63 17.2 61 16.1 93 93 S 3 6 29.96 1015 4 6 0.00 0.03
2:53 am 02:53 Cloudy 63 17.2 61 16.1 93 93 NW 8 13 29.96 1015 10 16 0.02 0.51
2:57 am 02:57 Cloudy 63 17.2 62 16.7 97 97 NW 9 15 29.91 1013 10 16 0.00 0.00
3:33 am 03:33 Cloudy 63 17.2 61 16.1 93 93 NE 6 9 29.91 1013 10 16 0.00 0.00
3:53 am 03:53 Cloudy 63 17.2 61 16.1 93 93 ENE 7 11 29.93 1013 10 16 0.00 0.00
4:53 am 04:53 Cloudy 63 17.2 61 16.1 93 93 ESE 3 6 29.94 1014 10 16 0.00 0.00
5:38 am 05:38 Cloudy 63 17 61 16 94 94 SSE 5 7 29.88 1012 10 16 0.00 0.00
5:53 am 05:53 Cloudy 63 17.2 61 16.1 93 93 S 3 6 29.92 1013 9 14 0.00 0.00
6:51 am 06:51 Clear with Mist and Fog 61 16 59 15 94 94 NNW 3 6 29.91 1013 2 3 0.00 0.00
6:53 am 06:53 Clear with Mist and Fog 60 15.6 59 15 96 96 NNW 3 6 29.91 1013 2 2 0.00 0.00
7:00 am 07:00 Clear with Mist and Fog 61 16 59 15 94 94 Calm 29.91 1013 3 5 0.00 0.00
7:53 am 07:53 Sunny with Mist and Fog 61 16.1 60 15.6 97 97 Calm 29.90 1013 4 6 0.00 0.00
8:53 am 08:53 Sunny 64 17.8 61 16.1 90 90 SE 5 7 29.90 1013 9 14 0.00 0.00
9:53 am 09:53 Sunny 69 20.6 63 17.2 81 81 SSE 7 11 29.89 1012 10 16 0.00 0.00
10:30 am 10:30 Sunny with Nearby Thunderstorms 73 23 63 17 69 69 SE 6 9 29.83 1010 10 16 0.00 0.00
10:50 am 10:50 Mostly Cloudy 73 23 63 17 69 69 S 8 13 29.83 1010 10 16 0.00 0.00
10:53 am 10:53 Mostly Cloudy 74 23.3 63 17.2 69 69 SSE 9 15 29.89 1012 10 16 0.00 0.00
11:53 am 11:53 Cloudy 74 23.3 62 16.7 67 67 S 6 9 29.91 1013 10 16 0.00 0.00
12:53 pm 12:53 Cloudy 75 23.9 63 17.2 66 66 WSW 7 11 29.91 1013 10 16 0.00 0.00
1:53 pm 13:53 Cloudy 75 23.9 63 17.2 66 66 W 6 9 29.89 1012 10 16 0.00 0.00
2:50 pm 14:50 Cloudy 77 25 63 17 61 61 VRB 3 6 29.77 1008 10 16 0.00 0.00
2:53 pm 14:53 Cloudy 77 25 64 17.8 64 64 VRB 3 6 29.87 1012 10 16 0.00 0.00
3:15 pm 15:15 Cloudy 77 25 64 17.8 64 64 N 3 6 29.77 1008 10 16 0.00 0.00
3:31 pm 15:31 Cloudy 79 26.1 64 17.8 60 60 Calm 29.77 1008 10 16 0.00 0.00
3:53 pm 15:53 Cloudy 78 25.6 63 17.2 60 60 Calm 29.85 1011 10 16 0.00 0.00
4:53 pm 16:53 Sunny 80 26.7 63 17.2 56 56 WNW 5 7 29.85 1011 10 16 0.00 0.00
5:53 pm 17:53 Sunny 81 27.2 64 17.8 57 57 SW 6 9 29.86 1011 10 16 0.00 0.00
6:53 pm 18:53 Sunny 80 26.7 64 17.8 58 58 S 6 9 29.86 1011 10 16 0.00 0.00
7:53 pm 19:53 Sunny 73 22.8 66 18.9 79 79 Calm 29.88 1012 10 16 0.00 0.00
8:53 pm 20:53 Clear 67 19.4 63 17.2 87 87 SE 3 6 29.90 1013 10 16 0.00 0.00
9:53 pm 21:53 Clear 65 18.3 62 16.7 90 90 Calm 29.91 1013 8 13 0.00 0.00
10:53 pm 22:53 Clear 65 18.3 62 16.7 90 90 Calm 29.91 1013 7 11 0.00 0.00
11:53 pm 23:53 Clear 68 20 59 15 73 73 NNE 8 13 29.95 1014 10 16 0.00 0.00

Powered by AerisWeather